Hourly Weather Roundup
Issued by NWS Central Illinois

Home | Current Version | Previous Version | Text Only | Print | Product List | Glossary On
Versions: 1 2 3 4 5 6 7 8 9 10 11 12 13 14 15 16 17 18 19 20 21 22 23 24 25 26 27 28 29 30 31 32 33 34 35 36 37 38 39 40 41 42 43 44 45 46 47 48 49 50
000
NZUS43 KILX 052210
HWRILX

AREA WEATHER ROUNDUP
NATIONAL WEATHER SERVICE, LINCOLN IL
500 PM CDT THU MAY 05 2016


CITY           SKY/WX    TMP DP  RH WIND       PRES   REMARKS
BLOOMINGTON    MOSUNNY   66  43  43 N10       29.99S
CHAMPAIGN      MOSUNNY   66  41  40 N12       29.96S
DANVILLE       SUNNY     64  42  43 N15       29.93S
DECATUR        MOSUNNY   65  44  46 N10       29.98S
EFFINGHAM      CLOUDY    65  46  51 NW10G18   29.98S
FLORA          MOSUNNY   66  46  48 NW13G22   29.97S
GALESBURG      SUNNY     65  37  35 N7        30.01S
JACKSONVILLE   SUNNY     66  41  39 N9        30.00F
LACON          SUNNY     65  42  42 N6        29.99S
LAWRENCEVILLE  PTSUNNY   65  45  48 N18       29.94S
LITCHFIELD     MOSUNNY   64  44  47 N9        30.00F
$$


CITY           SKY/WX    TMP DP  RH WIND       PRES   REMARKS
LINCOLN        PTSUNNY   66  44  45 NW5       29.99S
MACOMB         SUNNY     67  35  30 NW6       30.03S
MATTOON        MOSUNNY   65  40  39 N15G22    29.95S
MT CARMEL AP   PTSUNNY   64  46  51 N10       29.94S
OLNEY-NOBLE AP PTSUNNY   63  46  55 NW9G16    29.96S
PARIS          MOSUNNY   65  44  47 N6        29.95S
PEORIA         SUNNY     66  40  38 VRB5      30.00S
PONTIAC        MOSUNNY   67  43  42 NW8       29.98S
RANTOUL        SUNNY     67  42  41 N13       29.96S
ROBINSON       MOSUNNY   63  47  54 N10G18    29.94S
SPRINGFIELD    MOSUNNY   68  42  38 N8        30.00S
TAYLORVILLE    PTSUNNY   64  43  46 N8        29.99F
$$

...REGIONAL REPORTS...


CITY           SKY/WX    TMP DP  RH WIND       PRES   REMARKS
CHICAGO O`HARE MOSUNNY   59  40  49 E8        29.97F
KANKAKEE       SUNNY     64  43  46 N9        29.98S
MOLINE         SUNNY     68  37  32 N8        30.00S
MOUNT STERLING SUNNY     64  38  37 NW5G10    30.01S
MOUNT VERNON   MOSUNNY   63  46  55 NW5       30.00S
PITTSFIELD     SUNNY     65  42  42 N5        30.03S
QUINCY         SUNNY     66  38  35 NW10      30.02F
ROCKFORD       MOSUNNY   66  37  34 NW5       30.00F
$$


CITY           SKY/WX    TMP DP  RH WIND       PRES   REMARKS
BURLINGTON     SUNNY     67  39  35 N8        30.01F
CEDAR RAPIDS   SUNNY     68  37  32 VRB3      30.00F
DES MOINES     MOSUNNY   72  32  23 W5        30.03F
KIRKSVILLE     SUNNY     68  33  27 N6        30.05F
OTTUMWA        SUNNY     68  36  30 NW7       30.03F
ST LOUIS       MOSUNNY   67  42  40 N9        30.01F
$$


CITY           SKY/WX    TMP DP  RH WIND       PRES   REMARKS
TERRE HAUTE    SUNNY     63  45  51 NE10      29.94S
EVANSVILLE     PTSUNNY   60  45  57 NW9       29.96S
INDIANAPOLIS   PTSUNNY   61  46  57 NW17      29.89F
LAFAYETTE      SUNNY     63  42  46 N15       29.94R
MADISON        MOSUNNY   66  36  32 N6        29.97F
MILWAUKEE      MOSUNNY   52  38  58 E8        29.99S
$$






USA.gov is the U.S. government's official web portal to all federal, state and local government web resources and services.